Location: Dalton
(34.7700°N, 84.9700°W)
Time: 13:41:40
(UTC-05:00)

OTV 5 (USA 277) - Pass Details

Date: 10 October 2017
Orbit: 404 x 417 km, 43.0° (Epoch: 07 September)

Event Time Altitude Azimuth Distance (km) Brightness Sun altitude
Rises 19:40:03 0° 236° (SW) 2,342 ? -6.7°
Reaches altitude 10° 19:42:09 10° 234° (SW) 1,483 ? -7.2°
Maximum altitude 19:45:30 72° 150° (SSE) 439 ? -7.8°
Drops below altitude 10° 19:48:51 10° 65° (ENE) 1,487 ? -8.5°
Enters shadow 19:48:51 10° 65° (ENE) 1,490 ? -8.5°
